| time (UTC) | temp C | wind direction | speed KPH | gust KPH | rain 1hr cm | rain 24hr cm | rain mn cm | humidity % | barometer mb |
| 20260504202458 | 31 | 204 | 6.4 | 16.1 | 0.00 | 0.00 | 0.00 | 63 | 1016.2 |
| 20260504201955 | 31 | 134 | 1.6 | 12.9 | 0.00 | 0.00 | 0.00 | 64 | 1016.4 |
| 20260504201453 | 31 | 215 | 9.7 | 20.9 | 0.00 | 0.00 | 0.00 | 63 | 1016.0 |
| 20260504200950 | 31 | 249 | 9.7 | 14.5 | 0.00 | 0.00 | 0.00 | 61 | 1016.2 |
| 20260504200447 | 31 | 237 | 12.9 | 17.7 | 0.00 | 0.00 | 0.00 | 62 | 1016.0 |
| 20260504195943 | 32 | 152 | 6.4 | 14.5 | 0.00 | 0.00 | 0.00 | 60 | 1016.2 |
| 20260504195439 | 31 | 200 | 9.7 | 17.7 | 0.00 | 0.00 | 0.00 | 62 | 1016.2 |
| 20260504194936 | 31 | 182 | 6.4 | 12.9 | 0.00 | 0.00 | 0.00 | 61 | 1016.1 |
| 20260504194432 | 32 | 218 | 4.8 | 12.9 | 0.00 | 0.00 | 0.00 | 62 | 1016.2 |
| 20260504193928 | 32 | 233 | 9.7 | 17.7 | 0.00 | 0.00 | 0.00 | 60 | 1016.4 |
| 20260504193426 | 32 | 220 | 8.0 | 12.9 | 0.00 | 0.00 | 0.00 | 61 | 1016.3 |
| 20260504192924 | 31 | 235 | 11.3 | 17.7 | 0.00 | 0.00 | 0.00 | 62 | 1016.2 |
| 20260504192421 | 32 | 240 | 6.4 | 16.1 | 0.00 | 0.00 | 0.00 | 61 | 1016.1 |
| 20260504191920 | 32 | 218 | 11.3 | 20.9 | 0.00 | 0.00 | 0.00 | 61 | 1016.3 |
| 20260504191418 | 32 | 155 | 6.4 | 12.9 | 0.00 | 0.00 | 0.00 | 61 | 1016.4 |
| 20260504190913 | 32 | 257 | 9.7 | 22.5 | 0.00 | 0.00 | 0.00 | 61 | 1016.2 |
| 20260504190408 | 33 | 138 | 4.8 | 11.3 | 0.00 | 0.00 | 0.00 | 57 | 1016.2 |
| 20260504185906 | 32 | 183 | 6.4 | 14.5 | 0.00 | 0.00 | 0.00 | 58 | 1016.3 |
| 20260504185403 | 33 | 254 | 6.4 | 11.3 | 0.00 | 0.00 | 0.00 | 56 | 1016.3 |
| 20260504184858 | 33 | 188 | 9.7 | 16.1 | 0.00 | 0.00 | 0.00 | 57 | 1016.3 |
| 20260504184354 | 32 | 175 | 4.8 | 11.3 | 0.00 | 0.00 | 0.00 | 56 | 1016.2 |
| 20260504183850 | 32 | 231 | 9.7 | 14.5 | 0.00 | 0.00 | 0.00 | 57 | 1016.4 |
| 20260504183348 | 33 | 261 | 16.1 | 22.5 | 0.00 | 0.00 | 0.00 | 55 | 1016.1 |
| 20260504182845 | 33 | 176 | 3.2 | 16.1 | 0.00 | 0.00 | 0.00 | 55 | 1016.3 |
| 20260504182343 | 33 | 137 | 8.0 | 12.9 | 0.00 | 0.00 | 0.00 | 53 | 1016.3 |
| 20260504181839 | 32 | 253 | 12.9 | 17.7 | 0.00 | 0.00 | 0.00 | 55 | 1016.6 |
| 20260504181337 | 32 | 217 | 8.0 | 17.7 | 0.00 | 0.00 | 0.00 | 55 | 1016.7 |
| 20260504180836 | 32 | 206 | 8.0 | 22.5 | 0.00 | 0.00 | 0.00 | 55 | 1016.6 |
| 20260504180334 | 32 | 298 | 14.5 | 20.9 | 0.00 | 0.00 | 0.00 | 54 | 1016.7 |
| 20260504175832 | 32 | 252 | 11.3 | 14.5 | 0.00 | 0.00 | 0.00 | 53 | 1016.8 |
| 20260504175328 | 32 | 208 | 8.0 | 14.5 | 0.00 | 0.00 | 0.00 | 51 | 1016.9 |
| 20260504174826 | 32 | 208 | 6.4 | 16.1 | 0.00 | 0.00 | 0.00 | 50 | 1016.8 |
| 20260504174324 | 32 | 254 | 8.0 | 24.1 | 0.00 | 0.00 | 0.00 | 51 | 1017.0 |
| 20260504173820 | 33 | 203 | 11.3 | 20.9 | 0.00 | 0.00 | 0.00 | 50 | 1017.1 |
| 20260504173317 | 33 | 237 | 9.7 | 12.9 | 0.00 | 0.00 | 0.00 | 48 | 1016.9 |
| 20260504172814 | 33 | 128 | 3.2 | 9.7 | 0.00 | 0.00 | 0.00 | 48 | 1017.1 |
| 20260504172311 | 33 | 227 | 8.0 | 8.0 | 0.00 | 0.00 | 0.00 | 47 | 1017.4 |
| 20260504171807 | 33 | 245 | 9.7 | 14.5 | 0.00 | 0.00 | 0.00 | 47 | 1017.1 |
| 20260504171304 | 33 | 229 | 6.4 | 12.9 | 0.00 | 0.00 | 0.00 | 49 | 1017.3 |
| 20260504170801 | 33 | 216 | 4.8 | 14.5 | 0.00 | 0.00 | 0.00 | 48 | 1017.3 |
| 20260504170258 | 33 | 66 | 4.8 | 14.5 | 0.00 | 0.00 | 0.00 | 49 | 1017.3 |
| 20260504160216 | 33 | 223 | 4.8 | 17.7 | 0.00 | 0.00 | 0.00 | 56 | 1017.6 |
| 20260504151144 | 31 | 143 | 14.5 | 24.1 | 0.00 | 0.00 | 0.00 | 59 | 1017.9 |
| 20260504150641 | 32 | 218 | 8.0 | 16.1 | 0.00 | 0.00 | 0.00 | 56 | 1018.2 |
| 20260504150138 | 32 | 191 | 4.8 | 12.9 | 0.00 | 0.00 | 0.00 | 55 | 1018.1 |
| 20260504141107 | 31 | 123 | 1.6 | 3.2 | 0.00 | 0.00 | 0.00 | 67 | 1018.0 |
| 20260504140604 | 31 | 93 | 1.6 | 8.0 | 0.00 | 0.00 | 0.00 | 70 | 1018.0 |
| 20260504130528 | 30 | 148 | 4.8 | 4.8 | 0.00 | 0.00 | 0.00 | 70 | 1017.9 |
| 20260504110415 | 25 | 135 | 0.0 | 0.0 | 0.00 | 0.00 | 0.00 | 86 | 1018.2 |
| 20260504100332 | 21 | 135 | 0.0 | 0.0 | 0.00 | 0.00 | 0.00 | 99 | 1017.6 |
| 20260504081726 | 22 | 131 | 0.0 | 0.0 | 0.00 | 0.00 | 0.00 | 94 | 1017.1 |
| 20260504081222 | 22 | 133 | 1.6 | 3.2 | 0.00 | 0.00 | 0.00 | 93 | 1017.1 |
| 20260504080718 | 22 | 130 | 0.0 | 0.0 | 0.00 | 0.00 | 0.00 | 94 | 1016.8 |
| 20260504080215 | 23 | 131 | 0.0 | 0.0 | 0.00 | 0.00 | 0.00 | 93 | 1017.1 |
| 20260504070142 | 23 | 102 | 1.6 | 3.2 | 0.00 | 0.00 | 0.00 | 91 | 1017.0 |
| 20260504050531 | 23 | 119 | 0.0 | 1.6 | 0.00 | 0.00 | 0.00 | 90 | 1017.9 |
| 20260504045525 | 23 | 132 | 1.6 | 3.2 | 0.00 | 0.00 | 0.00 | 89 | 1018.0 |
| 20260504045020 | 23 | 124 | 1.6 | 4.8 | 0.00 | 0.00 | 0.00 | 89 | 1018.1 |
| 20260504044518 | 23 | 134 | 1.6 | 3.2 | 0.00 | 0.00 | 0.00 | 90 | 1018.2 |
| 20260504044015 | 23 | 99 | 0.0 | 0.0 | 0.00 | 0.00 | 0.00 | 90 | 1018.2 |
| 20260504043512 | 23 | 118 | 0.0 | 0.0 | 0.00 | 0.00 | 0.00 | 90 | 1018.3 |
| 20260504043009 | 23 | 122 | 1.6 | 1.6 | 0.00 | 0.00 | 0.00 | 89 | 1018.6 |
| 20260504042506 | 23 | 127 | 0.0 | 1.6 | 0.00 | 0.00 | 0.00 | 89 | 1018.3 |
| 20260504042003 | 23 | 138 | 1.6 | 3.2 | 0.00 | 0.00 | 0.00 | 88 | 1018.5 |
| 20260504041459 | 23 | 126 | 1.6 | 1.6 | 0.00 | 0.00 | 0.00 | 89 | 1018.4 |
| 20260504040955 | 23 | 125 | 0.0 | 0.0 | 0.00 | 0.00 | 0.00 | 88 | 1018.7 |
| 20260504040453 | 23 | 116 | 0.0 | 0.0 | 0.00 | 0.00 | 0.00 | 88 | 1018.6 |
| 20260504035948 | 23 | 123 | 0.0 | 0.0 | 0.00 | 0.00 | 0.00 | 90 | 1018.6 |
| 20260504035446 | 23 | 118 | 0.0 | 0.0 | 0.00 | 0.00 | 0.00 | 92 | 1018.7 |
| 20260504034942 | 23 | 126 | 0.0 | 0.0 | 0.00 | 0.00 | 0.00 | 92 | 1018.9 |
| 20260504034440 | 23 | 120 | 0.0 | 0.0 | 0.00 | 0.00 | 0.00 | 93 | 1018.9 |
| 20260504033937 | 23 | 121 | 0.0 | 1.6 | 0.00 | 0.00 | 0.00 | 94 | 1019.0 |
| 20260504033435 | 23 | 115 | 0.0 | 0.0 | 0.00 | 0.00 | 0.00 | 94 | 1019.0 |
| 20260504032932 | 23 | 118 | 0.0 | 0.0 | 0.00 | 0.00 | 0.00 | 94 | 1018.9 |
| 20260504032429 | 23 | 119 | 0.0 | 0.0 | 0.00 | 0.00 | 0.00 | 94 | 1018.7 |
| 20260504031925 | 23 | 130 | 0.0 | 0.0 | 0.00 | 0.00 | 0.00 | 93 | 1018.9 |
| 20260504031422 | 23 | 125 | 0.0 | 0.0 | 0.00 | 0.00 | 0.00 | 93 | 1018.9 |
| 20260504030919 | 23 | 134 | 0.0 | 0.0 | 0.00 | 0.00 | 0.00 | 92 | 1018.8 |
| 20260504030416 | 23 | 121 | 0.0 | 1.6 | 0.00 | 0.00 | 0.00 | 91 | 1019.0 |
| 20260504025912 | 23 | 119 | 0.0 | 0.0 | 0.00 | 0.00 | 0.00 | 95 | 1018.7 |
| 20260504025409 | 23 | 120 | 0.0 | 0.0 | 0.00 | 0.00 | 0.00 | 95 | 1019.0 |
| 20260504024906 | 23 | 120 | 0.0 | 0.0 | 0.00 | 0.00 | 0.00 | 94 | 1018.8 |
| 20260504024403 | 24 | 150 | 3.2 | 3.2 | 0.00 | 0.00 | 0.00 | 93 | 1018.8 |
| 20260504023900 | 24 | 125 | 0.0 | 0.0 | 0.00 | 0.00 | 0.00 | 92 | 1018.9 |
| 20260504023356 | 24 | 121 | 0.0 | 0.0 | 0.00 | 0.00 | 0.00 | 92 | 1018.6 |
| 20260504022852 | 23 | 121 | 0.0 | 0.0 | 0.00 | 0.00 | 0.00 | 94 | 1018.8 |
| 20260504022349 | 23 | 119 | 0.0 | 0.0 | 0.00 | 0.00 | 0.00 | 94 | 1018.6 |
| 20260504021845 | 23 | 122 | 0.0 | 0.0 | 0.00 | 0.00 | 0.00 | 95 | 1018.5 |
| 20260504021342 | 24 | 122 | 0.0 | 0.0 | 0.00 | 0.00 | 0.00 | 95 | 1018.4 |
| 20260504020840 | 24 | 115 | 0.0 | 0.0 | 0.00 | 0.00 | 0.00 | 96 | 1018.3 |
| 20260504020336 | 24 | 113 | 0.0 | 0.0 | 0.00 | 0.00 | 0.00 | 95 | 1018.4 |
| 20260504015832 | 24 | 121 | 0.0 | 0.0 | 0.00 | 0.00 | 0.00 | 94 | 1018.3 |
| 20260504015328 | 24 | 122 | 0.0 | 0.0 | 0.00 | 0.00 | 0.00 | 95 | 1018.4 |
| 20260504014825 | 24 | 121 | 0.0 | 0.0 | 0.00 | 0.00 | 0.00 | 94 | 1018.1 |
| 20260504014321 | 24 | 120 | 0.0 | 0.0 | 0.00 | 0.00 | 0.00 | 94 | 1018.2 |
| 20260504013819 | 25 | 121 | 0.0 | 0.0 | 0.00 | 0.00 | 0.00 | 94 | 1018.0 |
| 20260504013316 | 25 | 117 | 0.0 | 0.0 | 0.00 | 0.00 | 0.00 | 94 | 1018.2 |
| 20260504012813 | 25 | 117 | 0.0 | 0.0 | 0.00 | 0.00 | 0.00 | 93 | 1018.1 |
| 20260504012311 | 25 | 107 | 0.0 | 0.0 | 0.00 | 0.00 | 0.00 | 93 | 1018.0 |
| 20260504011808 | 25 | 119 | 0.0 | 0.0 | 0.00 | 0.00 | 0.00 | 93 | 1018.0 |
| 20260504011304 | 25 | 121 | 0.0 | 0.0 | 0.00 | 0.00 | 0.00 | 92 | 1017.9 |
| 20260504010800 | 25 | 122 | 0.0 | 0.0 | 0.00 | 0.00 | 0.00 | 92 | 1017.7 |
| 20260504010256 | 25 | 117 | 0.0 | 0.0 | 0.00 | 0.00 | 0.00 | 92 | 1017.7 |
| 20260504005753 | 25 | 118 | 0.0 | 1.6 | 0.00 | 0.00 | 0.00 | 91 | 1017.7 |
| 20260504005250 | 25 | 114 | 1.6 | 1.6 | 0.00 | 0.00 | 0.00 | 91 | 1017.8 |
| 20260504004747 | 25 | 115 | 0.0 | 0.0 | 0.00 | 0.00 | 0.00 | 90 | 1017.7 |
| 20260504004245 | 26 | 121 | 0.0 | 0.0 | 0.00 | 0.00 | 0.00 | 90 | 1017.8 |
| 20260504003741 | 26 | 123 | 0.0 | 0.0 | 0.00 | 0.00 | 0.00 | 89 | 1017.9 |
| 20260504003238 | 26 | 121 | 0.0 | 1.6 | 0.00 | 0.00 | 0.00 | 87 | 1017.9 |
| 20260504002734 | 26 | 124 | 0.0 | 0.0 | 0.00 | 0.00 | 0.00 | 86 | 1017.6 |
| 20260504002231 | 26 | 135 | 0.0 | 4.8 | 0.00 | 0.00 | 0.00 | 86 | 1017.8 |
| 20260504001729 | 26 | 128 | 0.0 | 3.2 | 0.00 | 0.00 | 0.00 | 86 | 1017.5 |
| 20260504001226 | 26 | 120 | 0.0 | 0.0 | 0.00 | 0.00 | 0.00 | 85 | 1017.7 |
| 20260504000723 | 26 | 178 | 1.6 | 1.6 | 0.00 | 0.00 | 0.00 | 84 | 1017.5 |
| 20260504000219 | 26 | 118 | 0.0 | 1.6 | 0.00 | 0.00 | 0.00 | 84 | 1017.8 |
| 20260503235718 | 27 | 125 | 0.0 | 1.6 | 0.00 | 0.00 | 0.00 | 84 | 1017.6 |
| 20260503235215 | 27 | 120 | 0.0 | 1.6 | 0.00 | 0.00 | 0.00 | 83 | 1017.3 |
| 20260503234713 | 27 | 121 | 0.0 | 0.0 | 0.00 | 0.00 | 0.00 | 85 | 1017.5 |
| 20260503234210 | 27 | 120 | 0.0 | 1.6 | 0.00 | 0.00 | 0.00 | 85 | 1017.4 |
| 20260503233707 | 27 | 115 | 0.0 | 0.0 | 0.00 | 0.00 | 0.00 | 87 | 1017.4 |
| 20260503233203 | 27 | 120 | 0.0 | 0.0 | 0.00 | 0.00 | 0.00 | 85 | 1017.3 |
| 20260503232700 | 27 | 118 | 0.0 | 0.0 | 0.00 | 0.00 | 0.00 | 85 | 1017.1 |
| 20260503232157 | 27 | 124 | 0.0 | 0.0 | 0.00 | 0.00 | 0.00 | 84 | 1017.3 |
| 20260503231655 | 27 | 129 | 0.0 | 0.0 | 0.00 | 0.00 | 0.00 | 83 | 1017.4 |
| 20260503231151 | 27 | 120 | 0.0 | 3.2 | 0.00 | 0.00 | 0.00 | 83 | 1017.3 |
| 20260503230648 | 27 | 128 | 0.0 | 4.8 | 0.00 | 0.00 | 0.00 | 82 | 1017.1 |
| 20260503230145 | 27 | 156 | 3.2 | 4.8 | 0.00 | 0.00 | 0.00 | 81 | 1017.2 |
| 20260503225642 | 27 | 127 | 0.0 | 0.0 | 0.00 | 0.00 | 0.00 | 82 | 1017.1 |
| 20260503225142 | 28 | 119 | 0.0 | 1.6 | 0.00 | 0.00 | 0.00 | 81 | 1017.0 |
| 20260503224640 | 28 | 135 | 0.0 | 3.2 | 0.00 | 0.00 | 0.00 | 81 | 1017.1 |
| 20260503224138 | 28 | 124 | 0.0 | 1.6 | 0.00 | 0.00 | 0.00 | 79 | 1017.1 |
| 20260503223636 | 28 | 133 | 0.0 | 1.6 | 0.00 | 0.00 | 0.00 | 79 | 1017.0 |
| 20260503223132 | 28 | 125 | 0.0 | 1.6 | 0.00 | 0.00 | 0.00 | 78 | 1016.7 |
| 20260503222629 | 28 | 136 | 3.2 | 9.7 | 0.00 | 0.00 | 0.00 | 76 | 1016.6 |
| 20260503222126 | 28 | 195 | 3.2 | 4.8 | 0.00 | 0.00 | 0.00 | 77 | 1016.8 |
| 20260503221625 | 28 | 127 | 0.0 | 3.2 | 0.00 | 0.00 | 0.00 | 76 | 1016.7 |
| 20260503221122 | 28 | 127 | 0.0 | 1.6 | 0.00 | 0.00 | 0.00 | 75 | 1016.8 |
| 20260503220619 | 29 | 128 | 0.0 | 1.6 | 0.00 | 0.00 | 0.00 | 74 | 1016.7 |
| 20260503220115 | 30 | 199 | 3.2 | 4.8 | 0.00 | 0.00 | 0.00 | 72 | 1016.7 |
| 20260503215612 | 30 | 119 | 0.0 | 0.0 | 0.00 | 0.00 | 0.00 | 71 | 1016.7 |
| 20260503215109 | 30 | 114 | 1.6 | 1.6 | 0.00 | 0.00 | 0.00 | 71 | 1016.6 |
| 20260503214608 | 30 | 123 | 0.0 | 3.2 | 0.00 | 0.00 | 0.00 | 73 | 1016.7 |
| 20260503214103 | 30 | 158 | 1.6 | 3.2 | 0.00 | 0.00 | 0.00 | 73 | 1016.4 |
| 20260503213603 | 30 | 127 | 0.0 | 0.0 | 0.00 | 0.00 | 0.00 | 70 | 1016.6 |
| 20260503213058 | 30 | 115 | 1.6 | 3.2 | 0.00 | 0.00 | 0.00 | 71 | 1016.4 |
| 20260503212556 | 30 | 184 | 4.8 | 4.8 | 0.00 | 0.00 | 0.00 | 70 | 1016.4 |
| 20260503212053 | 30 | 121 | 0.0 | 1.6 | 0.00 | 0.00 | 0.00 | 72 | 1016.6 |
| 20260503211550 | 30 | 125 | 0.0 | 1.6 | 0.00 | 0.00 | 0.00 | 73 | 1016.5 |
| 20260503211045 | 30 | 135 | 1.6 | 3.2 | 0.00 | 0.00 | 0.00 | 72 | 1016.5 |
| 20260503210543 | 30 | 131 | 0.0 | 1.6 | 0.00 | 0.00 | 0.00 | 71 | 1016.6 |
| 20260503210038 | 30 | 154 | 4.8 | 8.0 | 0.00 | 0.00 | 0.00 | 72 | 1016.2 |
| 20260503205535 | 30 | 127 | 0.0 | 1.6 | 0.00 | 0.00 | 0.00 | 70 | 1016.5 |
| 20260503205032 | 30 | 152 | 1.6 | 3.2 | 0.00 | 0.00 | 0.00 | 69 | 1016.5 |
| 20260503204529 | 31 | 144 | 6.4 | 11.3 | 0.00 | 0.00 | 0.00 | 68 | 1016.4 |
| 20260503204026 | 30 | 122 | 0.0 | 8.0 | 0.00 | 0.00 | 0.00 | 67 | 1016.3 |
| 20260503203523 | 31 | 136 | 1.6 | 9.7 | 0.00 | 0.00 | 0.00 | 68 | 1016.3 |
| 20260503203020 | 33 | 233 | 3.2 | 9.7 | 0.00 | 0.00 | 0.00 | 63 | 1016.5 |